Wind_Speed
31 32 33 34 35 35 35 35 35 35 34 33 33 36 40 42 44 44 43 44 43 40 38 38 38 39 39 39 38 37 37 37 37 37 37 36 33 33 35 36 38 39 41 44 46 47 49 50 49 49 52 56 58 57 59 58 54 49 45 45 47 49 50 52 53 53 52 53 53 52 51 50 48 46 45 44 43 42 41 40 39 37 36 34 32
31 32 32 33 34 34 34 35 35 34 34 33 34 37 40 42 43 43 44 44 44 44 44 44 44 45 46 44 42 40 39 38 38 38 38 37 35 32 32 35 37 38 39 42 46 47 47 47 47 49 51 55 59 59 59 60 58 52 47 46 47 48 48 50 53 55 55 56 55 54 54 53 51 50 49 48 47 46 45 44 43 41 39 37 35
31 32 32 32 33 33 34 34 34 35 34 34 35 37 39 41 42 43 44 44 45 46 48 50 51 51 51 49 47 44 42 40 40 40 39 39 38 36 33 33 35 36 37 38 40 43 46 47 45 46 50 53 57 59 58 59 59 53 49 49 48 47 46 47 50 54 57 58 57 55 54 54 53 53 52 51 50 49 48 46 45 43 41 39 38
31 31 32 32 33 33 34 34 34 35 35 36 37 38 39 40 41 42 43 44 45 45 47 49 50 50 49 49 48 46 44 43 42 41 41 41 41 40 37 35 35 37 37 37 36 36 39 43 44 43 45 48 52 57 58 58 60 58 55 53 51 49 48 48 47 49 53 57 58 58 56 55 54 54 53 53 52 51 50 48 47 45 43 42 41
31 32 32 33 33 33 34 35 36 36 36 37 38 38 39 40 41 43 43 44 44 45 45 45 46 46 46 46 46 46 45 45 45 44 42 42 42 42 41 38 37 38 38 39 38 37 35 37 40 40 40 42 46 52 56 57 59 59 59 58 55 52 51 50 48 46 47 51 54 56 56 55 54 53 53 54 54 53 51 51 49 48 46 45 44
32 32 33 34 34 34 35 36 37 37 37 38 39 39 40 41 42 43 44 44 44 45 45 45 44 44 44 45 45 45 45 46 46 46 45 44 44 43 43 41 40 39 39 40 39 39 38 36 36 37 37 38 41 46 51 53 54 57 60 61 59 56 54 52 50 47 46 47 50 51 52 53 52 51 53 54 54 54 53 52 51 50 48 47 46
32 33 34 34 35 35 36 37 38 39 39 40 40 41 41 42 42 43 43 44 44 44 45 45 44 44 43 44 44 45 45 45 45 46 47 46 46 45 44 44 42 41 41 41 41 40 40 40 38 35 34 34 36 40 45 48 49 52 57 61 60 59 58 57 55 51 49 48 49 49 50 52 53 53 53 54 54 54 54 54 53 52 50 49 48
32 33 34 35 36 37 37 38 39 40 41 41 42 42 42 42 42 43 43 44 44 45 45 45 45 44 44 43 43 44 45 44 44 44 45 46 47 47 46 45 44 43 42 42 43 42 41 41 41 39 36 33 32 34 39 43 45 46 50 57 59 59 59 61 60 57 54 52 51 50 50 51 53 55 55 54 54 55 54 54 54 53 52 50 49
32 33 35 35 36 37 38 39 40 41 41 42 43 43 43 43 43 43 43 43 44 45 46 46 46 45 45 45 44 44 45 45 45 43 43 44 45 46 47 46 45 45 44 44 44 44 43 42 42 42 41 38 34 32 32 36 40 42 43 48 53 56 58 60 61 59 57 55 53 51 50 51 52 54 55 56 56 56 56 56 54 53 52 52 50
33 35 35 36 37 37 38 39 40 41 42 42 43 43 43 43 43 43 44 44 44 44 45 45 45 45 45 46 45 45 45 46 46 45 44 43 43 44 46 47 46 44 44 44 45 45 45 44 43 43 43 42 40 37 33 32 34 37 40 42 45 49 53 58 61 60 58 57 56 54 52 52 52 53 54 55 56 57 57 56 55 54 54 53 51
34 35 36 37 37 38 39 40 41 42 43 43 44 44 45 44 44 44 44 44 44 44 45 45 45 45 45 45 45 46 46 46 47 47 46 45 44 43 44 46 47 45 44 43 44 45 47 46 44 43 44 44 43 41 39 36 33 32 35 38 40 42 46 52 58 61 60 57 57 57 55 53 53 53 53 53 55 55 55 54 53 53 53 52 51
34 35 36 37 37 38 39 41 42 42 43 44 45 45 45 45 45 45 45 45 45 44 45 45 44 44 44 44 44 45 45 46 47 48 48 47 46 44 44 44 46 47 46 44 43 43 45 47 46 44 44 44 45 44 43 41 38 35 33 33 36 39 40 44 51 58 61 60 58 57 56 55 54 54 53 52 52 54 54 54 53 52 53 52 51
36 36 37 37 37 39 40 41 42 43 44 45 45 46 46 46 46 45 45 45 46 45 45 45 44 44 43 43 43 43 44 45 45 47 47 48 47 46 45 45 45 46 47 46 44 42 42 44 46 45 43 43 45 45 45 44 43 41 38 34 33 35 37 38 42 49 56 60 60 57 56 56 56 56 55 53 51 52 53 54 54 53 54 53 50
37 37 38 38 38 40 41 42 43 44 45 46 46 47 47 47 46 46 46 45 45 46 45 45 45 44 44 43 43 44 43 44 44 45 46 47 48 47 47 46 46 46 47 48 47 45 42 41 43 44 43 41 43 44 45 45 44 44 43 41 37 34 34 35 37 41 47 54 59 58 56 56 58 58 57 56 54 53 53 53 53 53 54 53 52
38 39 38 38 39 40 42 43 43 44 45 46 46 47 47 47 47 47 46 45 45 46 46 46 46 45 44 44 44 44 44 44 44 44 45 47 47 48 47 47 47 47 47 48 48 48 45 42 41 42 43 41 40 41 43 45 45 45 45 44 43 39 37 35 34 35 39 45 52 55 55 55 57 59 59 58 57 56 56 55 53 52 52 53 53
39 39 39 39 40 41 42 43 44 45 46 46 47 47 47 48 48 48 47 46 46 45 46 46 46 46 45 45 44 44 44 44 45 45 45 46 47 48 48 47 47 47 47 47 48 49 48 45 42 41 42 42 41 39 40 43 44 45 46 46 45 44 42 39 37 35 35 37 43 50 52 52 54 57 59 59 59 58 58 58 56 53 52 53 54
39 40 39 40 40 42 44 44 45 46 46 47 47 47 48 48 48 49 48 47 47 46 45 45 46 46 46 45 45 44 44 44 45 46 46 47 47 48 48 48 48 48 47 47 47 48 48 47 45 42 41 42 42 40 38 39 42 44 45 46 47 46 45 44 42 39 37 35 37 42 47 50 51 53 56 58 59 59 59 59 59 57 55 55 55
40 41 40 40 42 43 44 45 46 47 48 48 48 48 48 48 49 49 49 49 48 47 46 45 45 45 45 46 46 45 45 44 45 46 47 48 48 48 49 49 49 48 48 47 47 48 48 48 47 45 43 41 42 43 40 38 38 41 43 45 46 47 47 46 46 44 42 39 37 37 40 44 47 50 53 55 57 58 59 59 59 58 57 57 58
40 42 41 41 43 44 45 46 47 48 49 49 48 49 49 49 49 49 49 49 49 48 47 46 45 44 44 45 45 46 46 45 45 45 46 47 48 49 49 49 49 49 48 48 47 47 48 48 48 47 45 43 42 43 43 40 38 38 41 43 44 46 48 48 48 47 47 44 42 39 39 40 42 46 49 52 54 56 58 59 60 59 58 58 58
41 42 42 42 43 44 45 46 48 49 49 49 49 49 49 49 49 49 49 49 48 48 48 47 46 46 45 44 44 45 46 46 45 45 45 46 47 48 48 48 49 49 48 48 47 47 47 48 49 48 47 45 43 43 43 43 40 38 39 41 42 44 47 48 49 49 49 48 47 44 42 41 40 41 44 48 50 52 54 57 59 60 60 58 58
42 43 43 43 44 45 46 47 48 49 49 49 49 49 50 50 49 49 49 48 48 48 48 48 48 47 47 45 44 44 45 46 46 46 45 45 46 46 47 47 48 48 48 48 47 47 47 47 48 48 48 47 45 44 43 44 43 41 39 40 42 43 45 47 48 49 50 50 50 49 47 45 43 42 41 43 46 49 51 54 56 58 59 59 59
44 44 45 44 44 45 46 48 49 49 49 49 49 49 49 49 49 49 49 48 48 48 48 48 48 48 48 47 46 45 45 46 46 46 46 46 46 46 46 46 47 47 47 47 47 47 47 47 47 47 48 47 46 45 44 43 44 44 42 40 40 42 44 45 47 49 50 51 52 52 51 49 48 46 44 43 43 45 48 50 52 55 57 59 59
45 46 46 45 45 46 47 49 49 49 50 49 50 49 49 49 49 49 49 48 48 48 47 48 48 49 49 48 48 46 46 46 46 46 46 46 46 46 45 46 46 46 45 45 46 46 46 46 46 46 47 47 47 45 45 44 43 44 44 42 40 41 43 45 46 47 48 50 51 52 53 52 52 51 49 47 45 45 46 47 49 51 54 56 57
47 47 47 46 46 47 48 50 50 50 50 50 50 49 49 49 49 49 49 48 48 47 47 48 48 48 49 49 49 48 48 48 47 47 46 45 46 46 45 45 45 45 44 44 45 45 45 45 45 45 46 46 46 46 45 44 43 43 43 43 42 41 41 43 44 45 45 47 49 50 52 53 54 54 53 51 50 48 47 47 48 49 51 53 55
48 48 48 47 47 48 49 50 50 50 51 50 50 50 49 49 49 49 49 48 48 47 47 48 48 48 49 49 49 50 50 49 48 48 47 45 45 45 45 44 44 44 43 43 43 43 44 44 44 44 44 45 45 46 46 45 43 43 42 43 43 42 41 41 42 43 44 44 46 47 49 51 53 55 56 55 54 52 51 50 49 48 49 50 53
49 49 48 47 48 49 49 50 50 51 51 51 51 50 50 50 49 49 48 47 47 47 47 47 47 48 49 49 50 50 51 51 50 48 47 45 45 45 44 44 43 43 42 42 42 42 42 42 42 43 43 43 44 44 45 45 44 43 42 42 43 42 42 41 41 42 43 43 43 44 46 48 51 54 56 58 57 56 55 54 53 51 50 50 51
49 48 47 48 48 49 49 50 51 51 51 51 51 51 50 50 50 49 48 48 47 47 47 47 47 49 50 50 51 51 52 52 51 49 46 45 44 44 44 43 43 42 41 41 41 41 41 41 41 41 41 41 42 42 43 44 44 44 42 42 42 42 41 41 41 41 42 42 42 42 43 45 48 51 54 57 58 59 58 57 56 55 54 53 52
48 47 47 47 48 48 50 51 51 52 51 51 51 51 50 50 49 48 48 48 47 47 47 47 48 49 50 51 52 52 51 50 49 48 45 43 43 43 43 43 42 41 40 40 40 40 40 40 39 40 40 40 40 41 41 42 43 43 43 42 42 42 42 41 41 41 41 41 41 42 42 43 44 47 51 54 57 59 60 60 59 59 57 56 56
46 46 46 47 48 50 51 51 52 52 52 51 51 51 50 50 49 48 48 48 48 48 48 48 49 50 51 52 52 51 50 48 47 46 44 42 42 42 42 42 41 40 39 39 39 39 39 39 38 38 38 39 39 39 40 40 41 42 42 42 42 41 41 41 41 41 41 41 41 41 42 42 43 45 47 50 54 56 59 61 62 61 61 60 59
45 46 47 49 50 51 52 52 53 52 52 52 51 50 50 49 49 48 48 48 48 48 48 49 50 51 51 51 51 50 48 46 45 44 43 42 41 41 41 41 40 39 38 38 38 38 38 37 37 37 37 37 37 38 38 39 39 40 40 41 41 41 41 41 41 41 40 40 41 41 42 42 43 44 45 47 50 53 57 60 62 63 63 63 62
47 48 49 50 51 52 52 52 52 52 52 51 50 50 50 49 49 48 48 48 48 48 49 49 50 50 51 51 50 49 47 46 45 44 43 42 41 40 40 39 40 39 38 37 37 37 37 36 36 36 36 36 36 36 36 37 37 38 39 39 40 40 40 41 41 41 40 40 40 40 41 41 42 43 43 45 47 50 53 57 60 63 65 65 65
49 50 51 51 52 52 52 52 52 51 51 50 50 50 50 50 49 48 48 48 47 48 48 49 50 50 50 49 48 47 46 46 45 43 42 41 40 40 38 38 39 39 38 37 36 35 35 35 36 36 35 35 34 34 34 35 36 36 36 37 38 39 40 40 41 41 41 41 40 40 40 40 40 41 42 44 45 47 50 53 57 60 63 66 67
51 51 52 52 52 52 51 51 51 51 50 50 50 51 50 50 49 48 48 47 47 47 48 49 49 49 49 48 47 47 46 46 44 42 41 40 39 39 38 37 37 38 38 36 35 34 34 34 35 35 35 34 34 33 33 33 34 35 35 36 37 38 39 40 40 41 41 41 41 41 41 40 40 40 41 43 44 45 47 50 54 58 61 65 67
52 52 52 52 52 51 51 52 51 51 50 50 50 50 50 49 48 47 47 46 46 47 47 48 48 48 47 46 46 46 46 45 44 42 41 39 38 37 37 36 36 37 36 35 34 33 33 33 34 34 34 34 33 32 32 32 33 33 34 34 36 37 38 38 39 39 39 40 40 40 41 40 40 40 41 42 43 45 46 48 51 55 59 62 65
54 54 53 53 53 52 52 52 51 50 50 49 49 50 49 48 47 46 46 46 46 46 47 47 47 46 46 45 44 45 45 44 43 41 40 38 36 35 35 36 36 35 35 33 33 32 32 32 32 33 33 33 32 31 31 31 32 32 33 34 35 36 36 36 37 37 37 38 38 39 39 39 39 39 39 40 42 44 45 47 49 52 56 60 63
56 56 55 54 54 53 53 52 51 50 49 49 48 48 48 47 46 46 46 45 45 46 46 46 45 45 44 43 43 43 43 42 41 40 39 37 35 33 33 34 35 34 33 32 31 32 32 31 31 32 32 32 31 30 31 31 31 31 32 33 34 35 35 35 35 35 35 36 36 36 37 37 37 37 37 38 40 42 44 46 48 50 52 56 61
58 57 57 55 54 54 53 52 51 49 48 48 48 47 47 46 45 45 45 45 45 45 46 45 44 43 42 42 41 42 42 41 40 39 37 36 34 32 31 32 34 33 32 31 30 30 30 31 30 30 31 31 30 29 30 30 30 31 31 32 33 34 34 34 34 34 34 34 34 34 34 35 35 35 36 37 38 40 43 44 46 48 50 53 57
59 57 56 54 54 54 53 52 50 48 47 47 47 46 46 45 45 45 45 44 44 45 44 43 42 41 41 40 40 41 41 40 39 38 36 34 33 31 30 31 32 32 31 30 30 29 29 29 30 30 30 31 30 28 29 30 30 30 31 32 33 33 33 33 33 33 33 32 32 32 32 33 34 34 35 35 36 38 41 42 44 46 48 51 53
58 56 55 53 54 54 53 52 49 47 47 46 46 46 45 44 44 44 44 44 44 44 44 42 41 40 39 39 39 40 40 40 39 37 35 33 31 30 30 30 30 31 30 29 29 29 28 28 28 29 29 30 29 28 28 29 29 29 30 31 32 33 33 33 32 32 31 31 31 31 32 33 34 34 34 34 33 35 38 40 42 43 46 48 49
57 55 54 53 54 54 53 51 49 47 46 45 45 45 44 44 44 44 44 44 44 43 43 42 41 39 38 38 39 39 39 38 37 36 34 32 31 30 29 29 29 30 29 28 28 29 28 27 27 28 28 29 29 28 27 28 29 28 28 30 31 32 32 32 32 31 32 32 32 33 33 33 33 33 32 31 31 32 35 38 40 43 45 45 45
56 54 53 53 54 54 52 49 48 46 45 44 45 44 43 43 44 43 43 44 43 42 42 41 40 39 38 38 38 38 38 37 36 36 34 32 31 30 29 29 29 29 29 28 27 28 28 27 26 27 27 28 28 28 28 28 28 27 26 27 29 30 31 31 32 32 33 33 33 33 33 33 32 30 28 27 29 31 33 36 39 43 45 44 43
55 53 53 54 54 53 50 48 46 45 44 44 44 44 43 43 43 43 43 43 42 42 41 40 39 38 37 37 37 37 37 36 35 35 34 32 31 31 30 29 29 29 28 28 27 28 28 27 26 26 26 27 28 28 28 28 27 26 25 26 27 28 28 30 33 34 34 34 34 33 32 31 29 27 26 26 28 30 31 34 38 41 42 43 44
54 53 53 53 52 51 48 46 44 43 43 43 43 43 43 43 43 43 43 43 42 41 40 39 38 38 37 37 37 37 36 35 34 34 33 32 31 31 30 30 30 29 29 28 27 28 28 27 25 25 25 26 27 28 28 28 27 26 25 25 26 27 28 30 34 35 35 34 33 32 30 29 28 27 27 28 29 30 32 34 36 38 39 41 43
53 53 52 51 50 49 47 44 43 42 42 42 42 43 43 43 43 43 43 43 41 40 40 38 38 38 37 37 37 36 35 35 34 33 32 31 31 31 31 30 30 30 30 29 28 28 28 27 26 25 24 25 27 27 27 27 27 27 26 25 26 26 28 30 33 33 32 32 31 30 29 28 28 28 28 29 31 32 34 35 35 36 38 40 42
52 51 50 49 49 47 44 42 41 40 41 41 42 42 43 43 43 43 43 43 41 40 40 38 37 37 37 37 36 36 35 35 34 33 32 31 31 31 31 30 30 31 31 30 29 29 29 28 27 26 25 25 26 26 26 26 26 26 26 26 26 27 27 29 31 31 31 30 29 29 28 28 28 28 28 30 32 32 33 33 34 34 36 38 40
51 50 49 48 47 44 42 41 40 39 41 41 41 42 43 43 43 43 43 42 42 41 40 38 37 37 36 36 36 35 34 34 33 33 32 31 31 31 30 31 31 31 31 31 30 30 30 29 28 27 26 26 25 25 24 24 24 25 26 27 28 28 28 28 30 30 30 29 29 28 28 28 28 28 28 29 30 30 31 32 33 33 35 37 38
50 49 47 46 45 42 41 41 40 39 41 41 41 42 43 43 43 43 43 43 42 41 40 38 37 37 36 36 36 35 34 34 33 33 32 31 31 31 30 30 31 32 32 31 31 30 30 30 30 29 28 27 26 24 22 22 22 24 26 28 29 29 28 28 29 29 29 29 29 28 28 28 28 28 28 28 29 29 30 31 32 33 34 35 37
49 47 46 44 42 41 40 40 40 40 41 41 42 42 42 43 43 43 43 43 42 41 40 38 37 37 36 36 36 35 35 34 33 32 32 31 31 31 30 30 30 32 33 32 31 31 31 31 32 31 30 29 26 23 21 21 23 25 26 27 28 29 29 28 28 29 29 29 29 27 26 26 27 27 28 28 28 28 28 29 30 31 32 34 36
47 45 43 42 41 40 40 40 40 41 42 42 42 42 42 43 43 43 43 43 42 41 40 38 38 37 36 36 36 35 35 34 33 32 32 31 31 31 31 30 30 31 33 33 32 32 31 31 32 32 32 30 27 23 22 23 24 25 25 26 28 29 30 29 28 29 29 29 27 25 24 24 26 27 27 27 27 27 27 27 28 29 30 32 34
44 42 42 41 40 40 40 40 41 42 43 43 42 42 42 43 43 43 43 43 42 41 40 39 38 37 36 36 36 35 35 35 34 33 32 31 31 31 32 31 30 31 32 32 33 33 32 32 32 33 33 32 28 25 24 24 24 23 23 25 28 30 29 28 29 29 29 28 26 24 23 24 25 26 26 26 26 26 27 26 27 27 29 30 31
42 41 41 40 40 40 40 41 42 43 43 43 43 42 43 43 43 44 43 42 42 41 40 39 38 37 37 36 35 35 35 34 34 34 33 32 32 31 31 32 32 32 31 32 32 32 32 33 33 33 33 32 29 27 26 24 23 22 23 26 28 28 27 27 28 29 29 27 26 24 23 23 25 25 26 25 25 25 26 26 25 26 27 27 28
Wind_Direction
348 347 346 345 344 342 340 339 337 334 332 328 321 317 316 317 318 317 315 313 308 303 303 305 306 306 304 300 296 295 295 296 295 294 293 294 292 286 277 268 264 262 261 259 258 255 254 257 259 256 248 239 233 228 229 233 231 231 234 234 231 229 228 228 226 225 226 228 228 229 229 229 230 233 235 235 234 233 233 231 229 227 226 225 225
346 345 344 343 341 339 337 335 333 331 329 324 318 315 315 315 315 314 312 310 307 302 300 301 303 305 305 303 299 297 296 297 297 295 294 293 293 290 281 272 266 262 259 258 258 257 257 257 257 256 253 245 236 229 227 229 229 228 231 232 232 231 230 229 226 224 225 227 229 230 230 230 230 230 232 233 233 233 233 234 233 231 230 228 228
344 343 341 340 338 336 334 332 330 328 326 323 319 316 315 314 314 313 312 310 307 303 300 299 300 302 302 300 299 296 294 295 297 297 296 295 294 293 288 280 274 269 264 259 257 257 257 258 257 253 250 246 240 233 228 229 230 231 230 231 232 232 231 230 228 226 225 226 227 228 230 231 231 231 231 232 232 232 232 233 234 234 233 232 231
341 340 338 336 335 333 332 330 328 327 325 323 320 319 317 316 316 315 314 313 311 308 305 302 301 301 300 298 296 294 292 291 292 294 295 294 293 292 290 286 282 278 274 268 261 258 256 257 257 253 247 245 242 238 234 230 231 233 230 228 231 233 232 231 230 230 228 226 226 227 228 229 230 231 231 232 232 231 231 232 233 234 233 233 233
338 337 335 334 333 331 330 329 327 327 325 324 322 321 320 319 319 318 317 316 315 313 311 308 306 303 301 299 296 292 290 287 286 287 289 289 289 288 287 285 282 280 280 277 271 265 260 257 256 255 250 246 244 243 240 234 231 231 228 225 227 231 233 231 229 231 232 229 226 226 227 228 231 232 231 232 232 232 231 231 232 232 232 232 233
335 334 333 331 331 330 329 328 327 326 325 324 324 323 322 322 321 320 319 318 317 316 314 312 310 308 304 301 298 294 290 287 285 283 283 285 286 286 286 285 283 280 280 279 278 272 266 261 257 256 253 249 246 243 242 239 233 230 227 224 224 227 232 233 230 228 230 230 228 227 227 229 232 232 232 232 233 232 231 231 231 231 231 232 233
332 330 330 329 328 328 328 327 326 326 326 325 324 324 323 323 322 320 319 318 317 316 315 314 313 311 309 305 302 299 295 292 289 286 284 284 284 285 285 285 284 282 280 279 279 278 273 267 262 259 256 253 249 244 242 241 236 232 228 226 224 225 228 232 231 228 227 229 230 231 230 229 230 231 232 232 233 233 232 232 231 231 231 232 232
328 326 326 326 326 326 326 325 325 325 325 325 324 324 323 322 321 321 319 318 318 317 316 315 314 313 311 309 306 303 300 297 295 292 288 285 284 284 284 284 284 283 281 279 278 278 277 273 268 263 260 257 254 249 244 243 241 237 232 228 227 226 226 228 229 227 225 225 228 231 233 232 232 232 232 231 231 232 232 232 231 231 231 232 232
324 324 324 325 324 324 323 323 323 323 323 323 322 322 321 321 321 321 320 319 318 317 316 316 315 314 312 311 308 305 303 301 299 296 293 290 286 285 284 284 284 283 281 280 278 277 277 275 272 268 265 262 259 256 251 246 245 243 239 233 230 229 228 227 226 225 224 223 223 226 229 233 235 235 234 233 231 230 230 230 229 229 230 231 231
323 323 323 323 322 322 322 321 321 321 321 321 320 320 320 320 320 320 320 319 318 316 316 315 314 314 312 310 309 306 304 302 301 299 297 294 290 287 285 283 284 283 282 280 278 276 276 275 273 271 269 266 262 260 257 253 250 248 246 242 236 232 229 228 227 226 225 223 222 222 225 229 232 234 234 234 233 232 231 230 229 228 228 229 230
322 322 322 322 321 321 320 319 320 320 320 319 319 319 319 319 320 320 319 318 317 316 314 314 313 312 311 309 307 306 304 302 301 300 298 297 294 291 287 284 283 282 282 280 278 276 274 274 273 271 270 268 265 263 261 258 256 252 249 247 245 240 234 229 227 227 228 225 222 221 223 225 227 230 232 233 233 233 232 231 230 229 229 228 228
322 322 321 321 320 319 318 318 319 318 317 317 317 317 317 318 319 318 318 317 316 315 314 313 312 311 309 307 306 304 303 302 300 299 299 297 295 293 290 287 284 283 282 280 278 275 273 273 273 271 269 268 267 265 262 260 258 257 254 249 247 247 244 237 231 228 228 227 224 222 222 223 224 226 229 231 231 231 231 229 229 229 229 228 227
321 321 320 320 319 318 318 318 318 317 316 316 316 316 316 316 317 317 317 316 316 315 314 312 311 310 308 306 305 303 301 300 299 298 297 296 295 294 292 289 285 283 282 280 279 276 273 271 271 271 269 268 267 265 263 261 260 258 257 255 251 248 248 246 240 234 230 228 226 226 224 222 222 223 225 227 228 229 229 228 228 227 228 228 226
321 320 320 319 319 318 318 318 318 317 316 316 316 316 315 315 315 315 315 315 315 314 313 312 311 309 308 307 305 304 302 300 299 297 296 295 294 293 292 290 287 284 282 281 280 278 275 271 269 270 270 268 266 265 263 262 260 259 258 257 256 252 249 249 247 242 237 233 230 230 229 225 223 223 223 223 224 226 227 227 228 228 228 228 227
319 319 319 319 319 318 317 317 317 316 316 316 316 315 315 314 314 314 314 314 314 313 313 312 311 310 309 308 306 305 303 302 300 298 296 294 293 292 291 290 288 286 283 282 281 280 278 274 270 268 269 269 266 264 263 262 259 258 257 256 256 255 252 251 250 248 244 240 237 236 235 231 226 225 224 224 223 223 225 226 226 227 227 227 227
317 317 318 318 317 316 316 316 315 315 315 315 316 315 314 314 313 312 313 313 313 313 312 312 311 311 310 309 308 306 304 303 301 298 296 294 293 292 290 289 288 286 284 282 281 281 280 278 274 269 268 268 268 265 262 261 260 258 256 255 255 255 254 253 252 250 248 246 242 240 240 238 233 228 226 226 225 224 225 225 225 225 225 225 225
316 316 318 317 316 315 315 314 314 313 314 315 315 315 314 314 313 312 312 312 312 312 312 311 311 311 310 310 308 307 304 302 300 298 296 294 292 291 289 288 287 285 284 282 281 280 280 279 277 273 269 267 267 267 263 260 260 259 257 255 254 254 253 253 252 251 250 248 247 244 242 242 240 235 231 229 228 227 226 226 226 225 224 224 224
316 316 317 316 315 314 313 313 312 312 313 314 315 315 314 314 313 312 312 312 312 312 312 311 311 310 310 309 308 306 304 301 299 297 295 293 291 290 288 287 286 285 283 282 281 279 279 279 278 276 273 269 266 266 265 261 258 257 258 256 254 252 252 251 251 251 250 248 248 248 246 244 243 241 239 235 233 230 228 228 228 227 226 225 224
316 315 316 315 314 313 312 312 311 311 312 313 314 314 313 313 313 313 312 312 312 311 311 311 310 309 308 307 306 305 303 301 299 296 294 292 291 289 288 286 285 284 282 281 280 279 278 278 278 277 275 272 268 266 265 263 259 255 255 255 254 252 251 250 249 249 249 248 247 247 248 247 245 243 243 241 239 235 232 230 230 229 228 227 226
315 315 314 314 313 311 311 310 309 310 312 312 312 312 312 312 312 312 312 311 311 311 311 311 310 309 308 306 305 304 302 301 299 296 294 292 290 288 287 285 284 283 282 281 279 279 278 277 277 276 275 273 271 268 265 264 261 256 253 253 253 253 251 250 249 248 248 248 247 246 246 247 247 245 244 243 243 241 237 234 232 230 230 229 229
315 314 313 313 312 311 310 308 308 310 311 311 311 310 310 311 311 312 312 311 311 311 310 310 309 308 308 306 305 303 302 300 298 297 295 292 290 289 287 286 284 283 282 281 280 278 278 277 276 275 275 274 272 269 267 264 263 260 255 251 251 252 252 250 249 249 248 247 247 246 246 246 246 246 245 244 243 243 242 239 236 233 231 230 230
314 312 312 312 312 311 309 308 309 310 310 310 309 309 309 310 310 310 311 311 311 310 309 308 308 308 307 307 306 304 302 300 298 297 296 294 292 290 288 286 284 283 282 280 279 278 277 277 276 275 275 274 273 270 268 266 263 261 259 255 251 250 252 252 250 249 249 248 247 246 245 245 245 246 245 244 244 243 243 242 240 237 235 232 230
313 311 312 313 311 310 308 309 310 310 309 308 307 308 309 309 310 309 310 311 310 309 308 307 307 307 308 307 306 305 302 300 299 297 296 294 292 290 289 287 285 283 281 279 278 277 277 277 276 276 275 274 273 272 269 267 264 263 261 259 255 252 250 251 251 250 249 249 248 247 246 244 244 245 245 244 244 244 243 243 242 241 239 236 234
312 311 312 313 311 310 309 309 310 309 308 308 308 309 309 309 309 309 309 310 309 308 307 307 307 308 308 308 306 305 303 301 299 297 295 293 292 291 289 287 285 283 281 279 278 276 276 276 275 276 275 275 274 273 271 268 266 264 262 260 258 255 252 250 251 251 251 250 249 248 247 245 244 244 244 243 243 244 244 244 243 242 241 240 238
311 311 312 312 310 309 309 309 309 308 308 309 309 310 310 309 309 308 309 309 308 308 307 307 308 308 308 308 307 306 304 302 299 297 295 293 291 290 288 287 285 283 281 280 277 276 275 275 275 274 275 275 274 274 273 271 268 266 263 261 259 257 254 252 250 250 251 251 250 249 248 247 245 244 244 243 242 242 243 244 244 243 242 241 241
311 311 312 311 308 308 308 308 308 308 309 310 310 311 310 309 309 308 309 309 308 308 307 307 308 308 308 308 307 307 305 302 300 297 295 292 290 288 287 286 284 283 282 280 278 276 275 274 273 274 274 274 274 273 273 273 271 269 265 263 260 258 256 254 252 250 249 250 250 249 248 247 246 245 244 244 243 242 242 242 243 243 243 242 242
311 312 311 309 308 308 308 309 309 309 310 311 311 311 310 309 309 309 309 309 309 308 308 308 309 309 310 310 309 308 305 303 301 298 295 292 289 287 285 284 284 283 282 281 279 277 275 273 273 273 273 273 272 272 272 272 272 271 268 264 261 259 257 256 254 252 250 249 249 249 248 248 247 246 245 244 244 243 242 241 241 242 242 242 242
311 311 309 308 308 309 309 310 310 310 311 311 312 311 311 310 309 310 309 309 309 309 309 310 311 311 312 311 310 308 306 304 302 300 297 293 289 287 285 283 283 283 282 281 280 277 275 274 273 272 272 272 272 271 270 270 270 270 269 267 263 260 258 256 255 254 253 251 249 248 248 247 247 247 247 246 245 244 243 242 241 241 241 241 241
312 310 309 309 309 310 311 311 311 311 312 312 312 312 311 310 310 310 310 311 310 310 311 311 312 313 313 312 310 309 306 305 304 302 299 294 289 286 284 283 282 283 282 281 280 277 275 274 273 272 272 271 271 271 270 269 268 268 268 267 266 263 260 258 255 254 253 253 251 250 249 248 247 247 247 248 247 246 245 243 242 241 241 241 240
311 310 310 310 311 312 312 312 312 312 312 312 313 312 312 311 311 312 312 312 311 311 312 313 313 314 313 311 310 309 307 307 306 304 300 296 291 286 284 283 282 282 282 281 279 277 276 274 272 271 271 270 271 271 270 269 268 267 267 266 266 265 263 261 258 256 254 254 253 251 250 249 249 248 248 249 249 248 247 245 244 242 241 241 241
311 312 311 312 312 312 312 312 313 313 313 314 314 314 313 313 313 313 313 312 312 312 312 313 314 314 312 311 310 310 309 308 307 304 300 296 292 288 286 284 283 282 282 281 279 277 276 274 273 271 270 270 270 270 270 269 268 267 266 266 266 265 264 263 261 259 256 254 253 253 252 251 250 249 249 249 249 250 249 248 247 245 242 241 241
313 313 312 312 312 312 313 313 314 314 315 316 316 315 314 314 314 314 313 312 311 312 312 313 313 313 312 311 311 310 310 309 308 305 300 296 293 290 287 285 283 282 282 281 279 278 276 275 274 273 271 271 271 270 269 268 266 265 265 265 265 265 265 265 265 263 261 258 255 253 253 252 251 250 250 250 250 250 250 250 249 248 245 242 241
315 313 313 313 313 314 314 315 316 317 317 318 317 315 314 314 314 313 312 311 311 311 312 312 313 312 312 312 312 311 310 310 308 305 301 297 294 291 288 286 283 282 282 281 280 278 277 276 275 274 273 273 272 271 270 267 266 265 264 264 264 264 265 266 266 266 266 264 261 257 254 252 251 251 250 250 251 250 250 250 250 249 248 245 243
315 314 314 314 314 315 316 317 318 319 319 318 316 315 313 313 313 312 311 310 311 311 312 312 312 313 313 313 312 311 311 310 309 306 302 299 296 293 290 286 283 282 281 281 281 279 278 277 276 275 274 274 273 273 271 268 266 264 263 263 264 264 265 265 266 267 267 266 265 262 259 256 253 252 252 252 252 252 251 251 250 250 249 247 245
316 316 316 316 317 318 318 319 320 320 319 318 315 313 312 312 312 311 310 310 310 311 311 312 313 313 313 312 311 311 311 310 309 306 302 300 297 293 290 287 284 282 281 282 281 280 278 278 277 277 276 275 274 274 272 270 267 265 264 263 264 264 265 264 264 264 264 265 265 264 263 260 257 256 255 255 254 254 253 252 251 250 249 249 248
318 318 318 318 318 319 319 320 320 319 318 316 313 312 311 311 312 311 310 310 310 311 311 312 313 313 312 311 311 310 310 310 309 306 303 300 297 293 289 286 284 283 283 283 282 281 280 279 278 278 277 275 275 275 273 271 268 266 265 265 264 264 264 263 262 262 261 262 263 264 265 265 263 261 258 257 257 256 255 254 253 252 250 249 248
319 319 318 318 318 318 319 319 319 318 317 314 312 311 310 311 311 310 309 310 311 311 311 312 313 312 311 311 310 310 310 310 309 306 303 300 297 294 289 286 284 284 284 283 282 281 281 280 279 278 277 276 276 275 274 271 268 266 266 265 265 265 264 263 262 261 261 261 262 264 266 267 268 267 265 262 260 259 258 256 255 253 251 249 247
319 318 317 317 317 317 318 317 317 317 315 312 311 310 310 311 310 309 309 310 310 311 311 312 312 311 311 311 310 310 310 311 310 307 304 301 298 295 291 287 285 285 284 283 282 281 281 280 280 279 278 277 276 276 274 272 269 267 266 266 266 266 265 264 263 262 262 262 263 264 265 265 266 268 269 268 265 262 260 258 257 255 253 251 249
317 317 316 316 316 316 316 316 317 315 313 311 310 309 310 310 309 309 309 310 310 311 311 312 312 312 311 311 310 310 311 311 311 308 305 302 299 295 292 289 287 287 285 284 283 282 281 281 280 279 278 278 277 276 275 272 270 267 266 267 267 267 266 266 265 265 265 264 263 262 261 262 263 265 268 271 271 269 264 261 258 257 254 252 250
316 315 315 315 314 315 315 316 315 314 312 311 309 309 310 310 309 309 309 309 310 311 311 312 312 312 311 310 309 310 310 311 311 309 306 303 299 296 293 291 289 288 286 285 284 283 282 281 280 279 279 278 278 277 275 273 271 269 267 267 267 268 268 268 267 267 265 263 261 260 259 259 261 264 268 272 274 273 269 264 260 258 256 254 252
315 314 313 314 313 314 315 314 313 312 311 310 309 309 309 309 309 310 309 310 311 311 311 312 312 312 311 309 308 308 309 310 310 309 307 304 300 297 295 292 290 288 287 286 284 283 282 282 281 280 279 279 279 278 276 274 273 271 269 268 267 267 268 268 268 266 263 262 260 260 260 261 263 266 268 270 270 269 267 264 261 259 259 258 254
313 312 312 312 313 313 313 312 312 311 310 309 308 308 309 309 310 310 309 310 311 311 311 312 312 311 309 308 307 307 308 309 309 309 308 305 301 298 296 294 292 289 287 286 284 283 282 281 281 280 279 279 278 277 276 275 275 273 270 267 266 266 266 266 265 263 262 262 262 264 266 269 270 270 266 263 262 262 262 261 260 259 259 258 256
312 311 311 312 312 312 311 311 310 309 308 308 308 308 309 309 310 310 310 310 311 311 311 311 310 309 308 307 306 307 308 308 308 307 307 305 302 298 296 294 292 290 288 286 285 284 282 281 280 279 279 279 278 276 276 276 277 275 272 268 265 264 262 261 262 263 264 266 268 269 271 271 271 268 264 260 257 256 256 256 257 257 256 255 255
312 311 311 312 311 310 310 310 309 308 307 307 308 309 310 310 310 310 309 310 310 311 311 311 309 308 307 305 305 306 306 306 306 305 305 304 302 298 296 295 292 291 289 287 285 284 282 281 280 278 277 277 276 276 276 277 277 276 274 270 266 262 261 261 263 266 267 269 270 271 270 269 267 264 262 260 257 254 255 256 256 255 255 254 253
312 312 311 310 309 309 310 309 308 308 307 308 309 310 310 310 310 310 309 309 310 311 311 310 309 307 306 304 304 304 305 304 304 303 303 303 301 298 296 295 293 291 289 287 286 284 283 281 280 277 275 273 273 274 275 276 276 276 275 272 267 263 261 262 264 266 267 268 270 269 268 266 264 263 261 260 259 259 258 258 257 256 256 256 254
312 312 311 309 309 309 309 308 309 308 308 309 310 310 310 310 310 309 309 309 310 311 311 310 308 306 305 304 303 303 303 302 302 301 301 301 300 298 296 294 292 290 289 288 286 284 283 281 280 277 274 272 271 272 273 275 276 275 273 270 267 264 262 261 263 265 266 266 267 266 266 265 264 263 262 260 259 259 257 257 257 256 255 255 255
312 311 310 309 309 309 309 309 309 309 309 309 311 311 311 310 309 309 309 309 310 311 310 310 308 306 304 303 302 302 301 301 300 300 299 298 298 296 295 293 291 289 288 287 286 285 283 282 280 277 275 272 270 271 273 274 273 271 269 268 268 267 266 264 263 264 264 265 265 264 265 265 264 263 262 260 258 257 255 256 256 256 256 255 254
313 312 310 309 309 309 309 310 310 310 309 310 311 312 311 310 309 309 309 310 310 310 310 309 307 305 304 302 301 301 300 299 298 297 296 295 295 293 293 292 291 289 288 287 285 284 283 281 280 278 275 272 270 271 274 272 268 267 267 268 269 269 268 266 264 264 265 265 266 267 267 268 267 265 262 260 258 256 255 256 256 257 256 255 253
313 311 310 310 310 310 310 311 311 310 310 311 313 313 311 310 309 309 309 310 310 309 309 308 306 305 303 302 300 300 299 298 296 295 294 293 292 291 290 290 289 288 288 287 286 284 282 280 279 278 276 273 271 270 270 267 265 265 266 266 266 266 266 267 267 268 268 268 269 270 270 267 265 263 262 260 257 255 255 257 258 258 256 253 251
313 311 311 311 311 311 311 311 310 310 311 312 313 313 311 310 309 309 309 309 309 308 308 307 306 304 302 301 300 299 298 296 295 294 292 291 290 290 290 289 287 285 286 286 287 286 284 282 279 277 276 275 273 271 266 262 262 263 263 263 262 263 266 269 270 270 270 271 271 269 266 264 263 262 261 259 256 254 253 255 258 258 255 251 248
313 312 312 312 311 311 312 311 310 311 312 313 313 313 311 309 308 309 308 308 308 308 307 306 305 304 302 301 300 298 297 295 294 293 292 290 289 288 288 288 287 285 284 283 284 284 284 283 281 279 278 277 276 274 268 264 263 261 259 259 260 262 267 269 269 270 270 270 269 267 266 266 266 264 262 259 254 252 251 254 257 257 252 249 247
Height
3074 3072 3070 3068 3066 3064 3062 3060 3058 3057 3055 3054 3052 3050 3048 3046 3044 3042 3040 3038 3036 3035 3033 3031 3030 3029 3028 3026 3024 3022 3020 3018 3016 3014 3013 3012 3011 3010 3009 3009 3009 3009 3010 3010 3010 3010 3011 3012 3013 3014 3015 3016 3017 3017 3017 3018 3020 3021 3022 3024 3026 3027 3028 3030 3032 3035 3037 3039 3041 3043 3045 3047 3049 3051 3053 3055 3058 3059 3061 3063 3065 3067 3069 3071 3073
3071 3069 3067 3065 3063 3061 3059 3058 3056 3054 3053 3052 3050 3048 3046 3043 3041 3038 3036 3034 3032 3031 3029 3027 3025 3023 3022 3021 3020 3018 3016 3014 3012 3010 3009 3008 3007 3006 3005 3005 3004 3004 3004 3005 3004 3004 3005 3006 3007 3008 3009 3009 3010 3010 3010 3011 3013 3014 3015 3017 3019 3021 3022 3024 3026 3028 3030 3032 3034 3037 3039 3041 3043 3045 3047 3049 3051 3053 3055 3057 3060 3062 3065 3067 3069
3068 3066 3064 3062 3061 3059 3057 3055 3053 3052 3050 3049 3047 3045 3043 3040 3038 3036 3033 3031 3028 3026 3024 3022 3020 3019 3017 3015 3015 3014 3012 3010 3008 3006 3004 3003 3002 3001 3001 3000 3000 2999 2999 2999 2999 2999 2999 3000 3001 3001 3002 3003 3003 3003 3004 3004 3006 3008 3009 3011 3013 3014 3016 3018 3020 3022 3023 3025 3028 3030 3032 3035 3036 3038 3040 3042 3045 3047 3049 3052 3054 3057 3060 3063 3065
3066 3064 3062 3060 3058 3057 3055 3053 3051 3049 3047 3045 3043 3041 3039 3037 3035 3032 3030 3027 3025 3022 3020 3018 3016 3014 3012 3010 3009 3008 3007 3006 3004 3003 3001 2999 2998 2997 2997 2996 2995 2995 2994 2994 2994 2994 2994 2994 2995 2995 2996 2996 2996 2997 2997 2998 2999 3001 3003 3005 3007 3008 3010 3012 3014 3016 3017 3019 3020 3022 3025 3027 3028 3031 3034 3036 3039 3041 3044 3046 3049 3051 3054 3057 3059
3063 3061 3060 3058 3056 3054 3052 3050 3048 3046 3045 3042 3040 3038 3036 3033 3031 3028 3026 3023 3021 3018 3016 3013 3011 3009 3007 3006 3004 3003 3002 3001 3000 2999 2997 2995 2994 2992 2992 2992 2991 2990 2990 2989 2989 2989 2989 2989 2989 2989 2989 2989 2989 2990 2990 2991 2991 2993 2996 2997 2999 3002 3003 3005 3007 3010 3012 3014 3015 3016 3018 3020 3021 3025 3028 3030 3033 3035 3038 3041 3043 3046 3048 3050 3053
3060 3058 3057 3055 3053 3051 3049 3047 3045 3043 3041 3039 3037 3034 3032 3029 3027 3025 3022 3020 3017 3014 3011 3009 3006 3004 3002 3000 2998 2997 2996 2995 2994 2993 2992 2990 2989 2988 2987 2986 2986 2986 2985 2984 2984 2984 2984 2984 2984 2983 2983 2983 2983 2984 2984 2985 2985 2986 2988 2990 2992 2994 2996 2998 3000 3002 3004 3007 3009 3011 3013 3015 3017 3020 3022 3024 3027 3029 3032 3035 3037 3040 3042 3044 3047
3057 3056 3054 3052 3050 3048 3046 3044 3041 3039 3037 3035 3032 3030 3028 3025 3023 3021 3018 3015 3013 3010 3007 3005 3002 3000 2998 2995 2993 2991 2990 2989 2988 2986 2986 2985 2984 2983 2982 2981 2980 2980 2980 2979 2979 2979 2979 2979 2979 2979 2978 2978 2977 2977 2978 2979 2979 2979 2980 2982 2984 2986 2989 2992 2993 2995 2997 3000 3003 3005 3007 3009 3011 3013 3015 3018 3021 3023 3026 3028 3031 3034 3036 3038 3041
3055 3053 3051 3049 3046 3044 3042 3040 3037 3035 3032 3030 3028 3026 3023 3021 3019 3017 3014 3011 3009 3006 3003 3000 2998 2995 2993 2991 2988 2986 2984 2983 2982 2981 2980 2979 2978 2977 2976 2975 2974 2974 2974 2974 2973 2973 2973 2973 2974 2974 2974 2974 2973 2972 2972 2973 2973 2974 2974 2975 2976 2978 2981 2984 2986 2987 2989 2992 2995 2998 3001 3004 3005 3007 3009 3012 3014 3017 3019 3022 3025 3028 3030 3032 3035
3052 3050 3048 3045 3043 3041 3038 3036 3033 3031 3028 3026 3024 3022 3019 3017 3015 3012 3010 3007 3005 3002 2999 2996 2993 2991 2988 2986 2984 2982 2979 2978 2977 2976 2975 2973 2972 2971 2970 2969 2969 2968 2968 2968 2968 2967 2967 2967 2968 2968 2968 2969 2969 2968 2967 2967 2968 2968 2968 2968 2969 2971 2973 2976 2979 2980 2981 2983 2986 2990 2994 2997 2999 3001 3003 3006 3008 3010 3012 3015 3018 3021 3023 3026 3029
3049 3047 3044 3042 3040 3037 3034 3032 3029 3027 3024 3022 3020 3017 3015 3013 3011 3008 3006 3003 3000 2998 2995 2992 2989 2987 2984 2981 2979 2977 2975 2973 2971 2970 2969 2968 2967 2966 2964 2963 2963 2962 2962 2961 2962 2961 2961 2961 2961 2962 2962 2963 2963 2963 2963 2963 2963 2963 2963 2963 2963 2963 2966 2969 2972 2974 2976 2976 2978 2981 2985 2989 2992 2994 2997 2999 3002 3004 3006 3009 3012 3014 3016 3020 3023
3046 3043 3041 3038 3036 3033 3030 3028 3025 3023 3020 3018 3015 3013 3010 3008 3006 3004 3001 2999 2996 2993 2991 2988 2985 2982 2980 2977 2975 2972 2970 2968 2966 2964 2963 2963 2962 2960 2959 2957 2956 2956 2955 2955 2955 2955 2955 2954 2955 2955 2956 2956 2957 2958 2959 2959 2959 2959 2958 2957 2958 2958 2959 2961 2964 2967 2970 2971 2972 2974 2977 2981 2984 2987 2990 2993 2995 2998 3000 3004 3007 3010 3012 3014 3017
3042 3040 3038 3035 3033 3030 3027 3024 3022 3019 3017 3014 3012 3009 3006 3004 3001 2999 2997 2994 2991 2989 2986 2984 2981 2978 2976 2973 2970 2968 2965 2963 2961 2959 2957 2956 2956 2955 2954 2952 2951 2950 2949 2949 2949 2949 2949 2948 2948 2949 2949 2949 2950 2951 2952 2953 2954 2954 2954 2953 2953 2954 2955 2956 2957 2959 2963 2965 2967 2968 2970 2973 2976 2980 2983 2986 2989 2991 2994 2997 3001 3004 3006 3008 3011
3039 3037 3034 3032 3029 3027 3024 3021 3018 3016 3013 3010 3008 3005 3002 3000 2997 2995 2992 2989 2986 2984 2982 2979 2977 2974 2971 2969 2966 2963 2961 2959 2957 2954 2952 2951 2950 2949 2948 2947 2946 2944 2943 2942 2942 2943 2943 2942 2942 2942 2943 2943 2943 2944 2945 2946 2947 2948 2949 2949 2949 2950 2951 2951 2951 2952 2955 2958 2960 2962 2964 2966 2969 2972 2975 2978 2982 2985 2987 2990 2994 2997 3000 3002 3005
3035 3033 3030 3028 3025 3022 3020 3017 3014 3012 3009 3006 3003 3001 2998 2995 2993 2991 2988 2985 2982 2979 2977 2974 2972 2969 2967 2964 2961 2959 2956 2954 2952 2950 2947 2945 2944 2943 2942 2941 2940 2939 2937 2936 2935 2936 2937 2937 2936 2935 2936 2937 2937 2938 2938 2939 2940 2941 2943 2944 2945 2946 2946 2946 2947 2947 2948 2950 2953 2956 2958 2959 2961 2964 2967 2970 2974 2977 2980 2984 2986 2989 2993 2996 2998
3031 3028 3026 3023 3021 3018 3015 3013 3010 3007 3004 3002 2999 2996 2993 2991 2988 2986 2983 2981 2978 2975 2972 2969 2966 2964 2961 2959 2956 2954 2951 2949 2947 2945 2942 2940 2938 2937 2936 2935 2934 2933 2932 2930 2929 2929 2929 2930 2931 2930 2929 2930 2931 2932 2932 2932 2933 2934 2936 2938 2939 2941 2941 2942 2942 2942 2943 2944 2947 2949 2952 2953 2954 2956 2960 2963 2966 2969 2973 2977 2979 2982 2985 2988 2991
3027 3024 3022 3019 3016 3013 3011 3008 3005 3003 3000 2997 2994 2992 2989 2986 2983 2980 2978 2976 2973 2970 2967 2964 2961 2958 2956 2954 2951 2949 2946 2944 2942 2939 2937 2935 2933 2931 2930 2929 2927 2926 2925 2925 2923 2922 2922 2923 2924 2924 2924 2923 2924 2925 2926 2926 2926 2927 2928 2930 2932 2934 2935 2936 2937 2938 2938 2939 2941 2943 2945 2946 2948 2949 2953 2956 2959 2962 2965 2969 2971 2974 2976 2979 2982
3023 3020 3017 3014 3011 3008 3006 3003 3000 2997 2995 2992 2989 2986 2983 2981 2977 2974 2972 2969 2967 2965 2962 2959 2956 2953 2950 2948 2946 2943 2941 2938 2936 2934 2931 2929 2927 2925 2923 2922 2921 2920 2919 2918 2917 2916 2915 2915 2916 2917 2918 2917 2917 2917 2919 2920 2920 2920 2921 2922 2924 2926 2927 2929 2931 2932 2933 2934 2935 2936 2938 2940 2942 2943 2946 2949 2952 2955 2958 2961 2964 2967 2969 2970 2973
3018 3015 3013 3010 3007 3004 3001 2998 2995 2992 2989 2986 2983 2981 2978 2975 2972 2969 2966 2963 2961 2958 2956 2953 2951 2948 2945 2942 2940 2938 2935 2933 2930 2928 2925 2923 2921 2919 2917 2916 2914 2913 2912 2912 2911 2910 2909 2908 2908 2909 2911 2911 2911 2910 2911 2913 2914 2914 2914 2915 2916 2918 2919 2921 2923 2926 2927 2929 2930 2931 2932 2933 2935 2937 2939 2942 2944 2948 2951 2954 2957 2960 2962 2963 2966
3014 3011 3008 3005 3002 2999 2996 2993 2990 2986 2984 2981 2978 2975 2972 2969 2966 2963 2960 2957 2955 2952 2949 2947 2945 2942 2940 2937 2934 2932 2929 2927 2925 2922 2920 2917 2914 2912 2910 2909 2908 2907 2906 2905 2904 2904 2903 2902 2901 2902 2903 2904 2905 2904 2904 2905 2907 2908 2908 2908 2909 2910 2911 2913 2916 2918 2921 2923 2924 2925 2927 2928 2929 2931 2933 2935 2938 2940 2943 2946 2949 2953 2955 2957 2960
3009 3006 3004 3000 2998 2995 2992 2988 2985 2982 2979 2976 2973 2970 2967 2964 2961 2958 2955 2952 2949 2946 2943 2940 2938 2936 2934 2932 2929 2926 2923 2921 2918 2916 2914 2911 2909 2906 2904 2902 2901 2900 2899 2898 2898 2897 2896 2895 2894 2894 2895 2896 2898 2898 2898 2898 2899 2901 2902 2902 2903 2903 2904 2906 2908 2910 2913 2915 2917 2919 2921 2923 2924 2926 2927 2930 2932 2934 2936 2939 2941 2945 2947 2951 2954
3005 3002 2999 2996 2993 2990 2987 2984 2980 2977 2974 2971 2968 2965 2962 2959 2955 2952 2949 2946 2944 2940 2937 2934 2931 2929 2927 2925 2923 2921 2918 2915 2912 2909 2907 2905 2903 2900 2898 2896 2894 2893 2892 2891 2891 2890 2889 2889 2888 2887 2887 2888 2890 2891 2891 2891 2892 2893 2894 2896 2896 2897 2897 2898 2900 2902 2904 2906 2909 2911 2914 2917 2919 2920 2922 2924 2926 2928 2930 2932 2935 2937 2939 2943 2946
3000 2997 2994 2992 2988 2985 2982 2978 2975 2972 2969 2966 2963 2960 2956 2953 2950 2946 2944 2941 2938 2935 2932 2928 2925 2922 2920 2918 2916 2914 2912 2909 2906 2903 2900 2898 2896 2894 2891 2889 2888 2887 2886 2885 2884 2883 2883 2882 2882 2881 2880 2880 2881 2883 2884 2885 2885 2886 2887 2888 2889 2890 2890 2891 2892 2894 2895 2897 2900 2903 2907 2910 2912 2914 2916 2918 2921 2923 2925 2927 2928 2930 2932 2936 2938
2995 2991 2989 2986 2983 2980 2976 2973 2970 2966 2964 2961 2958 2954 2951 2947 2944 2941 2938 2935 2932 2929 2926 2923 2920 2916 2914 2911 2909 2907 2905 2902 2899 2897 2894 2892 2889 2887 2885 2883 2881 2880 2879 2878 2877 2876 2876 2875 2875 2874 2874 2873 2874 2874 2876 2877 2878 2879 2879 2880 2882 2883 2884 2885 2885 2887 2888 2889 2891 2895 2899 2902 2905 2907 2910 2912 2915 2917 2919 2921 2922 2924 2926 2928 2931
2989 2986 2983 2980 2977 2973 2970 2966 2964 2961 2957 2955 2951 2948 2945 2942 2939 2935 2932 2929 2926 2923 2920 2917 2914 2911 2908 2905 2902 2900 2897 2895 2892 2889 2887 2885 2882 2880 2878 2876 2875 2873 2872 2871 2870 2870 2869 2869 2868 2868 2867 2867 2867 2867 2867 2869 2870 2871 2872 2873 2874 2875 2877 2878 2879 2880 2881 2883 2885 2887 2890 2894 2897 2899 2902 2905 2908 2911 2913 2915 2916 2917 2919 2921 2924
2984 2980 2978 2975 2971 2967 2964 2961 2958 2954 2951 2948 2944 2942 2939 2935 2932 2929 2926 2924 2920 2917 2914 2911 2908 2905 2902 2899 2896 2893 2889 2887 2884 2882 2880 2878 2876 2874 2872 2870 2868 2866 2865 2865 2864 2863 2863 2862 2862 2861 2861 2861 2860 2860 2860 2860 2862 2864 2865 2866 2867 2868 2869 2870 2872 2873 2874 2876 2878 2880 2883 2885 2888 2891 2894 2897 2900 2903 2906 2908 2910 2911 2913 2915 2916
2978 2975 2972 2969 2965 2962 2959 2955 2952 2948 2945 2941 2938 2935 2932 2929 2926 2923 2920 2917 2914 2911 2908 2905 2903 2899 2896 2893 2890 2886 2882 2879 2876 2874 2872 2870 2868 2867 2865 2863 2861 2860 2859 2858 2857 2857 2857 2856 2855 2855 2855 2854 2854 2853 2853 2853 2854 2855 2857 2858 2859 2861 2862 2863 2865 2866 2867 2869 2871 2873 2876 2878 2880 2882 2885 2888 2891 2895 2898 2900 2903 2904 2906 2908 2910
2972 2969 2966 2963 2959 2956 2953 2950 2946 2942 2939 2935 2932 2929 2926 2922 2919 2916 2913 2911 2908 2905 2902 2899 2896 2893 2890 2887 2883 2879 2875 2871 2868 2866 2865 2863 2861 2859 2858 2856 2855 2853 2852 2851 2851 2850 2850 2850 2849 2849 2848 2848 2848 2847 2847 2847 2846 2847 2849 2850 2852 2854 2855 2857 2858 2859 2861 2863 2864 2866 2869 2871 2872 2874 2876 2879 2882 2885 2888 2892 2894 2897 2899 2901 2903
2967 2964 2960 2956 2953 2950 2946 2943 2939 2936 2933 2929 2926 2923 2920 2916 2913 2910 2907 2904 2901 2898 2895 2892 2889 2886 2883 2879 2876 2872 2868 2864 2861 2858 2857 2855 2853 2852 2850 2849 2848 2847 2846 2845 2844 2844 2843 2843 2843 2842 2842 2841 2841 2841 2841 2840 2840 2840 2840 2842 2844 2846 2848 2850 2852 2853 2854 2856 2858 2859 2861 2863 2865 2866 2868 2870 2873 2876 2879 2882 2885 2888 2891 2894 2896
2961 2958 2954 2950 2946 2943 2939 2936 2932 2929 2926 2923 2920 2917 2913 2909 2906 2904 2901 2897 2894 2891 2888 2885 2882 2879 2876 2872 2868 2865 2861 2858 2854 2851 2849 2848 2846 2844 2843 2842 2841 2840 2839 2838 2837 2837 2837 2836 2836 2836 2835 2835 2835 2835 2835 2834 2834 2834 2834 2834 2835 2837 2839 2842 2844 2846 2848 2849 2851 2852 2853 2855 2856 2858 2860 2862 2864 2867 2870 2873 2876 2879 2882 2885 2889
2955 2951 2948 2944 2940 2937 2933 2929 2926 2923 2920 2917 2914 2910 2906 2903 2900 2897 2894 2891 2887 2884 2881 2878 2875 2872 2869 2865 2861 2857 2854 2851 2848 2845 2842 2840 2839 2837 2836 2835 2835 2834 2833 2832 2831 2831 2830 2830 2830 2829 2829 2829 2829 2829 2829 2828 2828 2828 2827 2828 2828 2829 2831 2833 2836 2838 2841 2842 2843 2844 2846 2847 2848 2850 2852 2854 2856 2858 2861 2864 2866 2869 2873 2876 2879
2949 2945 2942 2938 2934 2931 2927 2924 2920 2917 2914 2910 2907 2903 2899 2896 2893 2890 2887 2884 2880 2877 2874 2871 2868 2865 2861 2858 2854 2850 2847 2844 2842 2839 2835 2833 2831 2830 2829 2829 2828 2827 2827 2826 2825 2825 2824 2823 2823 2823 2823 2823 2823 2823 2823 2822 2822 2822 2821 2821 2822 2822 2823 2825 2827 2829 2832 2835 2836 2837 2838 2840 2841 2843 2845 2847 2849 2850 2852 2855 2857 2859 2863 2867 2869
2943 2939 2935 2932 2928 2925 2921 2917 2914 2911 2907 2904 2900 2896 2892 2889 2886 2884 2881 2878 2874 2871 2868 2865 2862 2858 2854 2851 2847 2843 2840 2837 2835 2832 2829 2826 2824 2823 2823 2822 2821 2820 2820 2819 2819 2818 2818 2817 2816 2816 2816 2816 2817 2817 2817 2816 2816 2816 2816 2815 2816 2816 2817 2818 2819 2820 2823 2826 2828 2830 2831 2833 2834 2836 2838 2839 2841 2843 2845 2846 2848 2850 2853 2856 2860
2936 2932 2929 2925 2922 2918 2915 2911 2907 2904 2900 2897 2893 2889 2886 2883 2881 2878 2875 2872 2868 2865 2862 2859 2856 2852 2848 2844 2840 2837 2834 2831 2828 2826 2823 2820 2818 2817 2817 2816 2815 2814 2813 2813 2813 2812 2812 2811 2810 2810 2810 2810 2810 2811 2811 2810 2810 2810 2810 2810 2810 2810 2811 2811 2812 2813 2814 2816 2818 2821 2823 2825 2827 2829 2830 2832 2834 2835 2837 2838 2839 2840 2842 2846 2850
2929 2925 2921 2918 2914 2911 2908 2904 2900 2897 2893 2890 2886 2883 2880 2877 2875 2872 2869 2866 2862 2859 2856 2853 2849 2846 2842 2838 2834 2831 2828 2825 2822 2819 2817 2815 2813 2811 2811 2810 2809 2808 2807 2807 2807 2806 2806 2805 2804 2804 2803 2804 2804 2804 2804 2804 2804 2804 2805 2804 2804 2805 2805 2806 2806 2806 2807 2807 2808 2811 2814 2817 2820 2821 2822 2824 2825 2827 2828 2829 2831 2831 2833 2836 2840
2922 2918 2914 2911 2907 2903 2900 2896 2893 2890 2887 2884 2880 2877 2874 2872 2869 2866 2863 2860 2856 2853 2850 2847 2843 2840 2836 2832 2829 2825 2822 2819 2816 2813 2811 2809 2808 2806 2805 2804 2803 2802 2802 2801 2801 2800 2800 2799 2799 2798 2797 2798 2798 2798 2798 2798 2798 2798 2799 2799 2799 2799 2800 2800 2800 2800 2801 2801 2801 2802 2804 2808 2811 2813 2815 2816 2816 2817 2819 2820 2822 2824 2826 2828 2830
2915 2911 2907 2904 2900 2896 2893 2889 2886 2883 2881 2878 2874 2871 2868 2866 2863 2860 2856 2853 2850 2847 2844 2841 2838 2834 2830 2827 2823 2819 2816 2814 2811 2808 2806 2804 2803 2802 2800 2798 2797 2796 2796 2796 2795 2794 2794 2793 2793 2792 2792 2792 2792 2792 2792 2792 2792 2792 2792 2792 2793 2793 2794 2794 2794 2795 2795 2795 2795 2795 2796 2799 2801 2804 2807 2807 2807 2808 2810 2811 2814 2816 2818 2820 2822
2908 2905 2900 2897 2893 2889 2886 2883 2880 2878 2875 2872 2868 2865 2862 2860 2857 2854 2850 2847 2845 2841 2838 2836 2832 2829 2825 2822 2818 2814 2811 2808 2806 2803 2801 2799 2797 2796 2795 2793 2792 2791 2791 2790 2790 2789 2788 2788 2787 2787 2786 2786 2787 2787 2786 2786 2786 2786 2786 2786 2786 2787 2787 2788 2789 2789 2789 2790 2790 2790 2791 2792 2793 2795 2797 2799 2800 2801 2801 2803 2805 2807 2810 2811 2814
2902 2898 2894 2891 2887 2883 2880 2877 2874 2872 2869 2865 2862 2859 2856 2854 2851 2847 2844 2841 2839 2836 2833 2830 2827 2824 2820 2816 2813 2809 2806 2803 2800 2798 2796 2794 2792 2791 2790 2789 2787 2786 2786 2785 2784 2784 2783 2782 2782 2781 2780 2780 2781 2782 2781 2780 2780 2781 2781 2780 2780 2781 2781 2782 2782 2783 2783 2784 2785 2786 2786 2786 2786 2788 2789 2790 2793 2793 2793 2795 2797 2799 2801 2802 2806
2897 2893 2889 2885 2881 2877 2874 2871 2868 2866 2862 2859 2856 2853 2850 2848 2845 2842 2838 2835 2833 2830 2827 2824 2821 2818 2814 2811 2807 2804 2801 2798 2795 2793 2791 2789 2787 2786 2785 2784 2782 2781 2781 2780 2779 2778 2778 2778 2777 2776 2775 2775 2775 2776 2775 2774 2775 2775 2775 2775 2775 2775 2775 2775 2776 2777 2778 2779 2779 2780 2780 2780 2781 2782 2782 2783 2785 2785 2786 2788 2789 2790 2791 2794 2798
2890 2887 2883 2879 2875 2871 2868 2865 2862 2859 2856 2852 2849 2846 2844 2842 2838 2836 2832 2829 2827 2824 2821 2818 2815 2812 2809 2805 2802 2799 2796 2793 2790 2787 2785 2784 2782 2781 2780 2779 2778 2776 2776 2775 2774 2773 2772 2772 2772 2771 2770 2770 2769 2770 2770 2769 2769 2770 2770 2770 2769 2769 2769 2770 2770 2771 2771 2772 2772 2773 2773 2774 2775 2776 2777 2778 2779 2779 2779 2780 2781 2781 2782 2787 2792
2884 2880 2877 2874 2870 2866 2862 2859 2855 2852 2849 2846 2843 2840 2838 2835 2832 2830 2826 2823 2821 2818 2815 2812 2809 2806 2803 2800 2797 2794 2791 2788 2785 2782 2780 2779 2777 2776 2774 2774 2773 2771 2771 2770 2769 2768 2767 2767 2767 2766 2766 2765 2764 2764 2764 2764 2764 2765 2766 2765 2764 2764 2765 2765 2765 2765 2765 2765 2766 2766 2767 2768 2770 2772 2773 2774 2773 2773 2773 2773 2773 2774 2776 2780 2783
2878 2874 2871 2867 2863 2859 2856 2853 2849 2846 2843 2840 2837 2834 2832 2829 2826 2823 2820 2817 2815 2812 2809 2806 2803 2800 2798 2794 2792 2789 2786 2784 2781 2778 2776 2774 2772 2770 2769 2768 2767 2766 2766 2765 2764 2763 2762 2762 2762 2762 2761 2760 2759 2758 2759 2759 2759 2760 2761 2760 2760 2760 2760 2759 2758 2758 2758 2759 2760 2761 2762 2763 2765 2766 2767 2768 2767 2767 2767 2767 2767 2769 2771 2772 2773
2872 2868 2865 2861 2857 2853 2850 2847 2844 2841 2837 2834 2831 2828 2825 2823 2820 2817 2814 2811 2809 2806 2803 2801 2798 2795 2792 2789 2786 2784 2781 2779 2776 2773 2771 2769 2767 2765 2764 2763 2762 2761 2760 2760 2759 2758 2757 2757 2757 2757 2756 2755 2754 2754 2754 2754 2754 2755 2755 2755 2755 2755 2755 2753 2752 2752 2753 2754 2755 2756 2757 2759 2759 2760 2760 2761 2761 2761 2760 2761 2762 2762 2763 2765 2765
2866 2862 2858 2854 2850 2847 2844 2840 2838 2835 2831 2828 2825 2822 2819 2816 2814 2811 2808 2805 2803 2800 2798 2795 2792 2789 2787 2784 2781 2779 2776 2774 2771 2769 2767 2765 2762 2761 2759 2758 2757 2755 2755 2755 2754 2753 2752 2752 2752 2752 2752 2751 2750 2749 2749 2749 2749 2749 2750 2750 2750 2750 2749 2748 2747 2748 2749 2749 2750 2751 2752 2753 2753 2754 2754 2754 2754 2754 2754 2755 2756 2756 2757 2758 2758
2859 2855 2851 2847 2843 2840 2838 2834 2832 2829 2825 2822 2819 2816 2813 2810 2807 2805 2802 2799 2797 2795 2792 2790 2787 2784 2781 2778 2776 2774 2771 2769 2766 2764 2762 2760 2758 2756 2754 2753 2752 2750 2749 2749 2749 2748 2747 2747 2747 2747 2747 2746 2745 2745 2745 2745 2745 2744 2744 2744 2744 2744 2744 2744 2743 2743 2744 2744 2744 2745 2745 2746 2747 2747 2748 2748 2748 2749 2749 2750 2750 2751 2751 2751 2752
2852 2848 2844 2840 2836 2834 2831 2828 2826 2823 2819 2816 2813 2810 2807 2804 2801 2798 2796 2793 2791 2788 2786 2783 2781 2778 2775 2773 2770 2769 2766 2764 2762 2759 2757 2755 2753 2751 2750 2748 2747 2745 2744 2743 2743 2743 2742 2741 2741 2741 2741 2741 2741 2741 2741 2741 2740 2739 2738 2738 2738 2738 2739 2739 2738 2738 2739 2739 2739 2739 2739 2740 2740 2741 2742 2742 2742 2743 2744 2744 2745 2745 2745 2746 2746
2846 2842 2838 2834 2830 2828 2825 2822 2820 2817 2813 2810 2808 2805 2802 2798 2795 2792 2789 2787 2785 2782 2779 2777 2775 2772 2770 2767 2765 2763 2761 2759 2757 2754 2752 2750 2748 2746 2745 2743 2742 2740 2738 2738 2738 2737 2736 2736 2735 2735 2735 2735 2735 2736 2736 2736 2736 2734 2733 2733 2732 2733 2733 2734 2734 2733 2733 2733 2734 2734 2734 2734 2735 2735 2736 2736 2736 2737 2738 2738 2739 2740 2740 2740 2741
2839 2835 2831 2828 2825 2822 2819 2816 2813 2810 2807 2804 2802 2799 2796 2792 2789 2786 2783 2781 2778 2776 2773 2771 2769 2766 2764 2761 2759 2757 2755 2753 2752 2750 2747 2745 2743 2741 2740 2738 2737 2734 2733 2732 2732 2732 2731 2730 2729 2729 2729 2729 2730 2731 2732 2731 2730 2729 2729 2728 2728 2728 2728 2728 2728 2728 2728 2728 2729 2729 2730 2730 2730 2730 2730 2730 2731 2732 2732 2733 2733 2734 2735 2735 2735
2833 2829 2825 2822 2819 2816 2813 2810 2807 2804 2801 2799 2796 2794 2790 2786 2783 2780 2777 2775 2772 2770 2767 2765 2763 2760 2758 2756 2753 2751 2749 2747 2746 2744 2742 2740 2738 2736 2735 2734 2732 2729 2727 2726 2726 2726 2725 2724 2723 2723 2723 2723 2725 2727 2726 2725 2725 2724 2724 2724 2723 2722 2722 2723 2723 2723 2723 2723 2724 2725 2726 2725 2725 2724 2724 2725 2726 2726 2727 2728 2728 2729 2729 2730 2730
2827 2823 2820 2816 2813 2810 2807 2805 2802 2798 2796 2793 2791 2788 2784 2780 2777 2774 2771 2769 2766 2764 2761 2759 2756 2754 2752 2750 2748 2746 2743 2741 2740 2738 2736 2735 2733 2731 2729 2728 2727 2725 2723 2721 2720 2719 2719 2718 2718 2717 2717 2717 2719 2720 2720 2720 2720 2720 2719 2718 2717 2717 2717 2718 2718 2718 2718 2719 2720 2720 2721 2720 2720 2720 2719 2720 2721 2721 2722 2723 2723 2724 2724 2725 2725
2821 2817 2814 2811 2808 2805 2802 2799 2796 2793 2790 2788 2785 2782 2778 2774 2771 2768 2766 2763 2760 2757 2755 2753 2750 2748 2746 2743 2742 2740 2738 2735 2733 2732 2730 2729 2728 2726 2724 2722 2721 2720 2719 2717 2715 2714 2713 2712 2711 2711 2711 2711 2713 2713 2714 2714 2715 2715 2714 2713 2712 2713 2714 2714 2713 2713 2713 2714 2715 2715 2716 2716 2716 2715 2715 2715 2716 2716 2717 2718 2719 2719 2720 2720 2721